This is the latest recevied weather packets stored in our database for station/object K9NZF-1. If no packets are shown the sender has not sent any weather packets the latest 1 day(s).
| Time | Temp. | Humidity | Pressure | Rain* | Wind** | Luminosity | Snow |
|---|---|---|---|---|---|---|---|
| 1778079046 | 11.11° C | 74% | 1012.7 hPa | 0 mm | - | 937 W/m² | - |
| 1778078986 | 11.11° C | 73% | 1012.7 hPa | 0 mm | - | 891 W/m² | - |
| 1778078923 | 11.11° C | 74% | 1012.6 hPa | 0 mm | - | 842 W/m² | - |
| 1778078800 | 11.11° C | 74% | 1012.4 hPa | 0 mm | - | 791 W/m² | - |
| 1778078678 | 10.56° C | 77% | 1012.4 hPa | 0 mm | - | 782 W/m² | - |
| 1778078553 | 10.56° C | 77% | 1012.3 hPa | 0 mm | - | 705 W/m² | - |
| 1778078433 | 10.56° C | 79% | 1012.2 hPa | 0 mm | - | 701 W/m² | - |
| 1778078190 | 10.56° C | 77% | 1012.2 hPa | 0 mm | - | 733 W/m² | - |
| 1778078010 | 10.56° C | 76% | 1012.2 hPa | 0 mm | - | 742 W/m² | - |
| 1778077844 | 10° C | 77% | 1012.3 hPa | 0 mm | - | 707 W/m² | - |
| 1778077345 | 10° C | 81% | 1012.3 hPa | 0 mm | - | 396 W/m² | - |
| 1778077038 | 9.44° C | 81% | 1012.2 hPa | 0 mm | - | 631 W/m² | - |
| 1778076918 | 9.44° C | 83% | 1012.2 hPa | 0 mm | - | 686 W/m² | - |
| 1778076739 | 9.44° C | 82% | 1012.1 hPa | 0 mm | - | 719 W/m² | - |
| 1778076679 | 9.44° C | 82% | 1012.1 hPa | 0 mm | - | 318 W/m² | - |
| 1778076618 | 9.44° C | 82% | 1012 hPa | 0 mm | - | 318 W/m² | - |
| 1778076139 | 8.89° C | 85% | 1012 hPa | 0 mm | - | 649 W/m² | - |
| 1778075958 | 8.89° C | 86% | 1012.1 hPa | 0 mm | - | 285 W/m² | - |
| 1778075837 | 8.89° C | 86% | 1012.1 hPa | 0 mm | - | 220 W/m² | - |
| 1778075777 | 8.89° C | 86% | 1012 hPa | 0 mm | - | 272 W/m² | - |
| 1778075716 | 8.89° C | 86% | 1012 hPa | 0 mm | - | 272 W/m² | - |
| 1778075358 | 8.89° C | 86% | 1012 hPa | 0 mm | - | 311 W/m² | - |
| 1778075297 | 8.89° C | 87% | 1012 hPa | 0 mm | - | 325 W/m² | - |
| 1778075057 | 8.33° C | 87% | 1012 hPa | 0 mm | - | 137 W/m² | - |
| 1778074996 | 8.33° C | 88% | 1012 hPa | 0 mm | - | 134 W/m² | - |
* Rain latest hour (hover to see other rain measurements)
** Current wind speed in m/s (hover to see current wind gust speed)